Regional Weather Roundup
Issued by NWS Midland/Odessa, TX

Skip options and go directly to product.
Home | Oldest Version | Previous Version | Current Version | All | Text Only | Save Text | Print | Product List | Glossary Off

Skip product version selection by date and time.   

906
ASUS44 KMAF 280610
RWRMAF
MIDLAND AREA WEATHER ROUNDUP
NATIONAL WEATHER SERVICE MIDLAND TX
1200 AM CST WED JAN 28 2015

...IN SOUTHWEST TEXAS AND SOUTHEAST NEW MEXICO...

CITY           SKY/WX    TMP DP  RH WIND       PRES   REMARKS
ALPINE         PTCLDY    53  44  70 CALM      30.30S
ANDREWS        FAIR      54  34  47 SW8       30.17S
ARTESIA        CLEAR     46  41  81 W8        30.18S
BIG SPRING     CLEAR     50  37  59 SE7       30.18S
CARLSBAD       CLEAR     46  38  73 W3        30.15F
DRYDEN           N/A     56  39  53 N5        30.15S
FORT STOCKTON  CLEAR     53  44  71 SW15      30.18S
GUAD PASS      CLEAR     54  39  57 SW10      30.27S
HOBBS          CLEAR     45  36  70 SW7       30.18F
MARFA          PTCLDY    39  37  93 N5        30.28S WCI  36
MIDLAND AIRPK  CLEAR     56  35  46 CALM      30.17S
MIDLAND INTL   CLEAR     51  38  60 SW5       30.16S
ODESSA         CLEAR     54  35  48 SW3       30.17S
PECOS          CLEAR     48  41  76 W3        30.17S
PRESIDIO       FAIR      57  45  64 CALM      30.19S
SEMINOLE       CLEAR     49  35  58 W8        30.18S
SNYDER         CLEAR    N/A N/A N/A S9        30.15F
WINK           CLEAR     45  35  68 CALM      30.16R
$$
...OTHER STATIONS IN TEXAS...

CITY           SKY/WX    TMP DP  RH WIND       PRES   REMARKS
ABILENE        CLEAR     52  38  58 S7        30.14R
AMARILLO       CLEAR     46  34  62 SW12      30.09F
AUSTIN         CLEAR     44  41  89 CALM      30.14F
BROWNSVILLE    CLEAR     55  53  93 S5        30.19R
CORPUS CHRISTI CLEAR     52  47  83 S6        30.15S
DALLAS FTW     PTCLDY    58  39  49 S7        30.11R
DEL RIO        CLEAR     56  40  55 CALM      30.14S
EL PASO        PTCLDY    50  40  68 S6        30.21R
HOUSTON INT    PTCLDY    49  45  86 CALM      30.15S
LUBBOCK        CLEAR     51  34  52 SW9       30.14R
SAN ANGELO     CLEAR     46  39  76 SW6       30.14S
SAN ANTONIO    PTCLDY    52  41  66 NW3       30.15S
WACO           CLEAR     47  41  80 SW3       30.13S
WICHITA FALLS  NOT AVBL
$$
...OTHER LOCATIONS IN NEW MEXICO...

CITY           SKY/WX    TMP DP  RH WIND       PRES   REMARKS
ALAMAGORDO     PTCLDY    41  36  81 S5        30.22S WCI  38
ALBUQUERQUE    CLEAR     40  29  64 E3        30.26R
CANNON AFB     CLEAR     49  36  61 W10       30.16R
CLOVIS         CLEAR     48  34  57 W10       30.15R
HOLLOMAN AFB   PTCLDY    41  36  82 CALM      30.21R
ROSWELL        CLEAR     45  38  76 NW6       30.17S
RUIDOSO        CLEAR     45  34  65 W6        30.31S
SANTA FE       PTCLDY    38  31  76 N10       30.25S WCI  31
TRUTH OR CONSE CLEAR     44  35  70 NW5       30.22S
TUCUMCARI      CLEAR     48  38  68 SW17      30.08F
$$

USA.gov is the U.S. government's official web portal to all federal, state and local government web resources and services.